Location: North Runcton
(52.7000°N, 0.4333°E)
Time: 19:29:49
(UTC+00:00)

ATLAS 3B R/B - Pass Details

Date: 19 May 2025
Orbit: 935 x 1258 km, 63.8° (Epoch: 23 June)

Event Time Altitude Azimuth Distance (km) Brightness Sun altitude
Exits shadow 23:17:18 20° 199° (SSW) 2,455 4.1 -16.9°
Maximum altitude 23:22:43 61° 125° (SE) 1,363 3.0 -17.0°
Drops below altitude 10° 23:30:25 10° 48° (NE) 3,239 5.7 -17.1°
Sets 23:33:17 0° 46° (NE) 4,219 6.4 -17.2°
